Theta_e
324 324 324 325 324 323 324 324 324 324 325 323 323 323 324 324 323 316 306 312 315 327 321 311 310 311 312 309 310 310 303 300 301 302 303 307 305 308 309 307 309 313 311 319 332
323 323 324 325 324 324 323 324 324 323 323 323 322 322 323 323 313 307 318 324 327 328 312 309 306 308 307 307 308 306 302 303 307 307 305 307 307 307 306 306 306 310 315 326 332
323 322 323 324 324 323 322 324 324 323 322 323 322 322 322 319 305 304 323 325 328 323 312 312 309 308 305 306 306 305 302 306 306 307 307 307 307 309 306 304 307 307 312 324 328
322 322 322 323 323 324 323 324 323 322 321 321 322 321 320 314 295 310 327 327 329 317 310 309 307 303 302 301 305 301 303 304 305 304 305 305 308 305 307 307 309 312 314 321 326
320 321 321 322 322 323 323 323 322 321 321 321 321 321 314 304 303 315 324 326 318 311 308 306 304 303 300 302 302 301 302 301 303 303 304 305 305 305 305 310 309 309 312 318 322
320 319 320 320 321 323 323 322 321 321 321 320 321 321 309 298 311 317 315 311 311 309 308 308 304 306 303 301 301 302 302 302 302 301 302 303 303 302 306 308 308 307 309 313 318
319 319 319 319 320 322 322 322 320 320 320 320 321 314 304 302 313 316 313 311 311 310 306 308 307 304 304 300 302 301 298 300 300 301 300 302 299 299 307 304 303 304 306 309 313
318 318 318 319 319 321 322 321 320 320 320 320 321 311 300 309 315 312 312 310 311 310 309 309 308 306 304 304 300 298 299 294 300 300 300 301 296 304 306 303 303 305 306 306 310
318 318 318 318 318 320 321 320 319 319 319 320 312 307 298 312 307 311 312 308 308 309 309 308 308 303 302 298 295 296 292 294 294 300 300 298 297 303 303 301 302 304 305 305 307
317 317 318 317 319 319 319 318 319 318 316 313 309 300 301 300 308 309 311 310 306 306 305 304 303 298 298 296 289 292 292 293 294 296 297 297 297 301 302 302 302 304 305 305 305
317 317 317 317 319 320 317 313 304 303 305 298 299 298 300 307 310 306 309 307 307 303 297 301 295 292 295 297 297 295 294 292 295 296 296 296 296 299 302 302 302 303 304 306 306
317 317 317 318 319 318 314 302 302 305 296 303 301 302 305 307 300 303 308 302 301 296 299 296 292 297 299 298 295 294 293 292 293 295 295 296 295 299 301 302 303 303 304 306 307
317 317 317 318 318 315 309 305 310 308 295 296 301 300 302 305 299 300 304 303 299 297 297 294 295 299 296 294 293 293 292 292 291 293 295 293 292 295 300 301 303 304 305 306 307
317 317 317 317 311 311 306 309 312 309 290 291 295 299 303 303 297 305 306 302 298 295 297 296 296 296 295 293 294 290 294 293 291 291 287 293 286 295 297 297 298 300 303 304 304
317 316 317 316 311 306 307 313 313 304 279 294 294 304 303 298 299 299 304 301 295 296 296 293 293 293 293 294 296 292 295 293 292 291 290 290 287 292 294 294 297 301 302 303 305
316 316 316 313 314 311 314 313 308 288 280 289 295 294 295 297 296 299 299 301 300 295 295 294 296 296 295 294 296 295 293 293 292 290 283 289 288 289 293 294 296 299 301 302 303
316 315 314 314 307 314 314 307 288 282 292 289 289 293 293 291 294 295 294 293 291 287 288 291 292 295 296 292 294 295 291 284 283 283 282 287 287 290 297 296 296 298 299 301 302
315 315 312 313 314 314 310 295 282 288 290 294 293 293 289 292 292 294 292 290 294 293 290 286 284 292 295 294 291 291 291 286 281 281 284 285 283 290 297 297 297 297 300 301 301
315 311 309 311 316 313 298 284 287 291 295 291 291 288 288 291 291 292 291 291 293 294 288 287 287 294 294 295 295 290 288 293 284 281 284 287 290 295 296 295 296 296 298 299 301
298 301 304 307 315 307 292 287 292 295 296 293 287 290 286 288 288 289 290 294 293 296 297 292 285 291 292 295 295 293 295 285 287 282 280 285 287 289 292 293 295 296 297 299 300
298 294 299 307 310 299 286 290 293 295 297 292 291 289 290 288 289 288 290 293 296 295 296 293 290 287 291 289 289 289 289 290 290 288 283 281 286 295 296 297 296 297 298 299 298
294 286 298 306 292 290 287 293 295 295 298 296 295 293 290 291 289 289 289 292 297 296 291 294 291 286 287 293 295 294 290 291 286 284 286 285 287 295 295 296 300 299 300 300 300
290 290 299 303 285 285 291 291 295 294 295 295 293 295 294 291 288 291 292 296 296 295 292 294 289 286 285 290 293 289 291 292 292 290 285 283 286 297 295 297 299 299 298 297 298
292 285 288 293 293 290 289 289 290 296 296 297 297 297 293 291 293 291 291 295 296 296 296 296 292 287 283 286 290 287 289 291 289 285 286 287 289 293 294 295 297 298 297 297 297
289 286 287 284 286 291 291 290 289 289 295 297 294 295 293 290 290 290 293 294 295 295 295 295 287 289 290 291 291 291 290 290 288 289 286 289 289 293 296 296 297 298 298 297 296
287 286 288 288 289 290 290 288 289 291 293 291 291 294 295 292 293 291 293 293 293 295 293 294 288 290 286 290 290 288 290 291 291 291 290 290 290 297 299 299 298 297 297 295 296
292 293 291 287 288 287 288 290 290 293 294 295 294 293 291 293 297 297 297 296 294 293 292 290 289 286 283 289 288 284 287 289 290 293 291 287 292 296 296 297 298 298 297 296 296
Wind_Speed
22 20 20 20 19 19 17 15 15 14 11 10 9 8 7 7 5 7 9 3 4 10 4 7 4 5 7 4 3 2 6 9 9 9 8 11 9 4 2 3 4 5 4 3 16
22 21 20 21 20 18 19 16 15 14 13 12 10 9 8 7 9 11 4 7 3 10 9 10 9 7 6 5 4 7 7 9 6 7 10 13 11 9 7 7 6 7 7 8 14
23 22 20 20 19 19 19 16 14 13 12 11 9 8 8 8 5 6 4 7 9 9 5 8 5 9 8 3 7 4 9 5 6 5 2 11 8 6 6 7 7 11 13 12 12
23 21 20 19 18 19 19 17 14 12 13 11 11 9 6 7 8 3 1 11 9 12 8 10 8 10 8 8 5 7 2 1 6 4 5 9 6 7 9 6 6 6 10 14 15
22 20 19 20 18 18 17 17 16 13 12 11 9 9 7 8 4 3 6 9 11 11 12 11 12 12 9 6 5 7 5 3 5 6 2 6 7 2 8 5 4 5 6 13 14
22 21 19 18 17 17 17 17 16 13 12 11 9 8 7 15 3 3 8 9 9 11 11 10 7 7 6 5 12 5 6 6 5 6 4 6 4 2 5 3 8 6 8 11 13
22 22 20 19 17 15 17 16 15 13 11 10 9 7 7 4 2 6 7 5 7 9 10 7 2 7 4 5 1 6 7 6 6 6 3 2 7 10 8 5 6 9 10 11 12
23 22 22 20 18 16 16 15 13 11 9 8 6 6 4 2 3 6 7 6 6 5 2 5 4 5 0 5 4 6 6 9 10 8 3 6 12 14 5 6 12 12 10 11 13
25 23 23 21 18 17 17 14 11 11 7 8 5 8 5 4 5 8 8 10 9 7 4 5 4 4 6 7 6 8 8 15 6 7 5 10 8 9 4 6 9 9 11 10 11
26 24 24 22 20 20 19 15 10 13 7 4 3 6 7 7 7 7 5 12 8 11 8 6 5 7 9 11 12 9 13 6 12 8 8 9 13 6 6 8 8 9 9 11 13
27 25 24 23 23 24 19 12 9 6 8 5 5 1 8 9 7 9 8 11 11 15 10 10 11 15 16 14 7 7 11 9 6 3 5 12 14 14 13 13 12 12 12 12 12
26 27 25 24 25 26 17 10 14 9 8 1 2 2 1 2 6 11 8 12 13 15 13 8 15 13 8 8 5 3 8 8 3 3 4 6 12 15 14 16 16 16 15 14 13
26 24 25 25 24 17 17 11 7 11 7 3 2 3 3 5 5 16 13 10 16 19 19 13 6 12 11 11 12 11 11 4 5 3 3 5 13 17 14 16 15 16 15 13 14
26 25 25 27 15 17 15 10 5 1 6 9 6 6 5 5 5 5 9 8 5 17 15 12 5 14 13 14 11 13 6 1 3 2 6 2 7 4 7 10 12 14 15 13 14
28 27 28 24 11 19 10 9 7 0 7 15 12 3 9 8 13 6 2 5 11 11 8 7 11 13 13 13 14 5 6 5 2 5 5 7 7 5 3 9 14 14 11 7 5
29 28 30 9 7 13 11 10 4 5 9 8 8 12 11 10 3 7 9 2 4 7 4 5 2 7 3 6 9 15 10 4 3 2 7 11 8 8 10 9 4 3 6 7 7
29 30 26 8 10 11 11 5 6 10 11 10 9 11 19 12 9 11 16 14 12 11 12 5 6 6 7 10 7 11 11 4 4 6 7 5 6 15 5 4 5 8 8 7 6
29 29 11 4 7 13 6 9 7 13 13 6 10 15 19 18 12 12 17 17 21 17 12 13 10 13 10 9 10 17 14 7 7 6 3 1 9 8 4 2 4 1 3 6 6
31 12 8 4 8 9 13 12 10 12 17 12 18 18 15 16 8 13 19 21 19 21 12 13 9 11 12 4 14 8 10 5 6 2 2 7 10 12 9 7 7 10 8 8 8
4 5 7 6 10 7 11 10 8 3 15 20 11 15 21 22 13 17 18 17 20 21 16 7 5 2 5 3 4 9 11 5 5 6 7 9 12 14 5 14 12 12 11 9 7
3 5 1 3 7 14 13 10 5 5 8 14 9 10 16 18 18 15 15 9 24 17 15 7 6 4 6 13 17 6 10 8 6 9 8 9 12 6 8 12 15 12 11 11 9
3 5 1 8 8 2 8 12 2 10 4 3 3 6 11 16 18 15 18 9 10 15 17 12 3 6 8 4 10 17 20 22 9 10 8 9 15 6 2 3 7 13 12 12 10
3 2 2 10 9 7 7 4 5 9 8 6 6 3 4 12 10 13 8 5 5 15 12 12 6 4 5 6 7 8 14 15 18 7 11 9 19 4 3 5 6 11 11 10 10
2 4 4 3 4 12 10 6 7 2 6 4 6 5 8 7 6 8 10 3 4 10 1 12 3 15 16 12 11 10 12 16 15 11 19 16 27 17 6 8 9 10 12 12 11
3 3 1 6 3 14 10 9 9 7 2 4 4 5 9 7 10 6 6 6 3 4 5 10 6 10 18 15 13 8 13 18 20 24 19 26 25 30 15 13 15 13 12 13 13
2 3 3 5 9 14 8 8 13 12 11 10 6 11 6 3 6 7 9 7 4 1 7 4 3 4 10 9 9 10 11 19 26 26 24 29 26 30 13 10 11 14 15 15 16
2 1 1 6 6 5 7 11 16 15 6 7 14 6 4 2 5 8 8 6 5 4 7 3 4 3 20 3 3 6 34 21 21 25 25 24 33 21 21 13 16 15 18 20 18
Wind_Direction
187 189 189 180 178 183 189 187 184 173 179 172 176 168 171 161 178 181 226 223 184 150 197 135 159 231 215 188 220 288 224 198 175 184 141 154 180 178 39 169 199 160 18 45 128
185 190 194 177 174 182 184 183 181 174 170 171 179 174 172 173 217 222 187 145 168 162 170 177 179 194 213 184 192 228 225 194 157 180 158 170 199 170 189 172 188 171 113 138 154
183 187 190 177 178 178 180 177 177 169 164 165 171 181 167 175 214 227 116 186 182 195 184 199 218 203 220 200 186 188 212 115 146 122 169 170 189 186 207 197 199 195 167 164 170
181 184 183 175 180 178 176 168 171 169 164 168 171 175 171 195 214 101 135 170 172 192 179 165 186 201 218 200 171 201 230 193 121 124 147 170 183 203 218 78 32 118 152 171 180
180 176 178 173 175 177 174 166 167 167 163 171 178 167 169 211 240 112 126 141 157 185 190 169 189 205 216 192 185 229 158 120 118 132 154 124 188 253 225 181 123 112 162 183 196
175 169 171 167 172 176 167 165 164 165 165 174 179 171 222 218 101 143 135 154 172 185 195 176 194 205 244 208 212 149 160 136 152 143 141 186 169 224 198 166 206 208 196 207 209
172 169 165 166 172 174 160 160 162 162 166 169 186 213 220 207 160 146 163 166 169 195 179 187 187 191 148 160 103 165 142 160 177 174 124 223 209 221 216 156 203 223 235 223 217
171 168 164 164 168 168 151 150 155 154 155 159 198 221 212 84 171 160 169 134 164 149 174 135 158 123 225 120 109 185 208 195 167 175 148 226 239 217 203 230 245 242 227 221 219
168 165 161 163 165 157 141 139 142 140 134 141 183 240 200 140 182 164 183 156 152 141 110 127 183 140 139 179 183 206 220 215 155 207 161 208 248 236 166 217 245 246 240 226 222
164 164 161 165 162 145 132 135 137 128 140 136 287 216 164 190 144 164 167 166 156 148 130 163 177 179 198 202 212 202 233 221 210 177 213 200 244 204 205 213 235 255 241 233 229
164 164 165 163 156 142 137 131 146 154 189 159 203 293 134 114 146 180 165 167 165 180 174 184 194 202 193 202 256 309 223 213 204 98 221 228 247 251 240 234 241 243 243 236 225
165 164 166 162 156 150 166 175 176 129 147 116 354 91 180 186 143 174 194 176 180 185 174 175 213 198 213 170 195 198 231 231 104 110 240 243 260 264 251 242 243 245 234 237 229
163 162 162 157 154 165 185 185 133 167 143 178 177 189 188 190 183 174 187 197 195 186 192 198 178 165 170 183 196 221 239 234 332 163 239 290 268 247 242 240 239 245 249 246 238
160 159 161 149 155 180 193 196 178 91 166 166 199 212 159 193 184 138 211 199 205 200 200 228 123 179 192 202 196 226 194 188 168 260 271 294 278 229 228 231 229 241 236 233 230
162 163 160 159 152 183 170 146 134 190 206 154 157 114 158 192 125 177 129 208 180 160 191 160 163 171 197 200 183 201 151 198 172 249 317 205 261 244 97 253 250 224 212 210 185
161 163 157 176 144 177 128 139 191 157 222 159 144 171 165 175 109 124 176 55 20 144 246 94 6 193 187 70 188 129 116 101 112 224 256 250 223 259 222 242 222 154 187 169 181
160 160 163 157 163 156 143 152 125 204 126 168 175 175 180 174 153 177 180 186 182 179 190 157 171 134 152 114 137 178 160 180 224 199 254 20 207 250 262 217 275 210 183 181 175
156 158 155 115 137 157 166 139 176 200 186 134 157 166 190 159 193 187 177 193 215 214 183 192 196 176 174 208 170 191 191 182 205 198 250 97 228 249 271 354 236 340 179 166 179
152 162 148 99 152 166 161 184 194 174 184 151 149 166 184 190 188 178 198 203 199 204 208 199 218 144 174 149 149 167 208 207 102 80 218 205 250 276 196 219 218 216 192 195 181
107 122 135 85 173 156 160 191 191 187 150 159 160 190 185 188 184 194 186 213 207 203 233 183 158 197 132 162 219 211 155 161 211 205 233 234 245 251 195 231 215 212 207 185 182
74 98 61 140 170 179 195 176 146 155 175 184 141 167 189 183 195 195 197 216 206 187 212 200 237 116 156 212 187 169 189 220 224 225 223 249 246 285 256 208 211 203 197 183 183
60 111 35 187 157 193 178 185 138 154 183 186 112 115 184 178 195 199 214 193 185 170 201 199 223 159 196 115 265 221 214 204 200 207 238 270 264 101 55 266 206 189 177 176 177
77 86 10 165 166 160 144 142 197 168 180 175 157 159 154 172 192 200 188 133 194 173 184 163 214 116 193 217 196 235 234 241 239 257 207 217 258 100 192 192 195 179 176 169 169
155 109 39 69 305 158 138 147 137 168 163 138 114 151 157 171 222 187 198 85 159 196 311 162 179 208 219 229 164 203 215 223 237 234 239 230 255 227 183 200 179 186 187 181 180
6 79 37 153 197 161 159 146 143 149 170 159 137 184 176 182 185 184 178 137 102 129 186 189 212 222 243 250 263 224 219 218 217 230 227 239 243 256 240 200 203 190 183 181 186
103 146 114 99 151 154 157 172 174 145 155 184 178 180 183 201 163 201 179 195 105 143 180 214 248 217 253 235 252 271 271 238 223 230 240 249 254 255 253 187 185 184 188 196 196
132 100 350 140 163 149 166 169 180 158 159 183 183 155 170 244 33 97 74 83 104 141 181 206 137 109 259 173 256 275 233 241 246 234 234 236 245 262 251 211 197 191 196 202 198